• In Uzbekistan
  • List of Countries
  • For 7 days
  • Water Temperature
  • Satellite Maps
  • Weather Map
  • Weather Widgets
  • user-avatar
    Login

    Hourly Weather Newcastle

    Today, 21 January, Sunday

    Time Temperature Precipitation Wind Pressure Humidity
    00:00 -7°C° 0 mm 5 mps 746 mmHg 74%
    01:00 -8°C° 0 mm 4 mps 748 mmHg 75%
    02:00 -8°C° 0 mm 2 mps 749 mmHg 82%
    03:00 -9°C° 0 mm 3 mps 750 mmHg 80%
    04:00 -10°C° 0 mm 3 mps 751 mmHg 79%
    05:00 -12°C° 0 mm 3 mps 752 mmHg 78%
    06:00 -13°C° 0 mm 3 mps 753 mmHg 77%
    07:00 -13°C° 0 mm 3 mps 754 mmHg 77%
    08:00 -13°C° 0 mm 2 mps 754 mmHg 80%
    09:00 -13°C° 0 mm 3 mps 755 mmHg 74%
    10:00 -12°C° 0 mm 3 mps 755 mmHg 68%
    11:00 -11°C° 0 mm 4 mps 756 mmHg 62%
    12:00 -11°C° 0 mm 4 mps 756 mmHg 60%
    13:00 -10°C° 0 mm 4 mps 756 mmHg 58%
    14:00 -9°C° 0 mm 4 mps 756 mmHg 57%
    15:00 -10°C° 0 mm 4 mps 756 mmHg 61%
    16:00 -9°C° 0 mm 3 mps 757 mmHg 65%
    17:00 -10°C° 0 mm 3 mps 757 mmHg 69%
    18:00 -12°C° 0 mm 3 mps 758 mmHg 70%
    19:00 -12°C° 0 mm 3 mps 758 mmHg 72%
    20:00 -13°C° 0 mm 3 mps 759 mmHg 73%
    21:00 -13°C° 0 mm 3 mps 759 mmHg 73%
    22:00 -13°C° 0 mm 2 mps 760 mmHg 72%
    23:00 -13°C° 0 mm 2 mps 760 mmHg 72%

    Tomorrow, 22 January, Monday

    Time Temperature Precipitation Wind Pressure Humidity
    00:00 -13°C° 0 mm 2 mps 760 mmHg 72%
    01:00 -14°C° 0 mm 2 mps 761 mmHg 72%
    02:00 -14°C° 0 mm 2 mps 761 mmHg 72%
    03:00 -14°C° 0 mm 2 mps 761 mmHg 73%
    04:00 -15°C° 0 mm 2 mps 762 mmHg 73%
    05:00 -16°C° 0 mm 3 mps 762 mmHg 74%
    06:00 -16°C° 0 mm 3 mps 763 mmHg 75%
    07:00 -16°C° 0 mm 3 mps 763 mmHg 75%
    08:00 -17°C° 0 mm 3 mps 764 mmHg 75%
    09:00 -16°C° 0 mm 3 mps 764 mmHg 71%
    10:00 -15°C° 0 mm 3 mps 765 mmHg 66%
    11:00 -14°C° 0 mm 3 mps 765 mmHg 61%
    12:00 -13°C° 0 mm 3 mps 765 mmHg 60%
    13:00 -12°C° 0 mm 3 mps 765 mmHg 58%
    14:00 -10°C° 0 mm 3 mps 765 mmHg 57%
    15:00 -9°C° 0 mm 2 mps 765 mmHg 63%
    16:00 -10°C° 0 mm 2 mps 765 mmHg 68%
    17:00 -10°C° 0 mm 1 mps 766 mmHg 73%
    18:00 -10°C° 0 mm 1 mps 766 mmHg 76%
    19:00 -11°C° 0 mm 1 mps 766 mmHg 78%
    20:00 -12°C° 0 mm 1 mps 767 mmHg 81%
    21:00 -12°C° 0 mm 1 mps 767 mmHg 81%
    22:00 -12°C° 0 mm 1 mps 767 mmHg 81%
    23:00 -12°C° 0 mm 1 mps 767 mmHg 81%

    Day after tomorrow, 23 January, Tuesday

    Time Temperature Precipitation Wind Pressure Humidity
    00:00 -12°C° 0 mm 1 mps 766 mmHg 80%
    01:00 -12°C° 0 mm 1 mps 766 mmHg 80%
    02:00 -11°C° 0 mm 1 mps 766 mmHg 79%
    03:00 -11°C° 0.1 mm 1 mps 766 mmHg 80%
    04:00 -11°C° 0.1 mm 1 mps 765 mmHg 82%
    05:00 -11°C° 0.1 mm 1 mps 765 mmHg 83%
    06:00 -13°C° 0.6 mm 2 mps 764 mmHg 87%
    07:00 -13°C° 0.6 mm 2 mps 764 mmHg 90%
    08:00 -13°C° 0.6 mm 3 mps 763 mmHg 94%
    09:00 -13°C° 1.4 mm 3 mps 762 mmHg 95%
    10:00 -12°C° 1.4 mm 4 mps 762 mmHg 95%
    11:00 -12°C° 1.4 mm 4 mps 761 mmHg 95%
    12:00 -11°C° 1.2 mm 4 mps 759 mmHg 95%
    13:00 -11°C° 1.2 mm 5 mps 757 mmHg 94%
    14:00 -10°C° 1.2 mm 5 mps 755 mmHg 94%
    15:00 -7°C° 1.9 mm 5 mps 754 mmHg 94%
    16:00 -5°C° 1.9 mm 4 mps 752 mmHg 95%
    17:00 -3°C° 1.9 mm 4 mps 750 mmHg 96%
    18:00 -1°C° 3.3 mm 4 mps 749 mmHg 96%
    19:00 +1°C° 3.3 mm 4 mps 747 mmHg 97%
    20:00 +4°C° 3.3 mm 4 mps 745 mmHg 98%
    21:00 +4°C° 3.2 mm 4 mps 744 mmHg 98%
    22:00 +5°C° 3.2 mm 4 mps 743 mmHg 98%
    23:00 +5°C° 3.2 mm 5 mps 741 mmHg 97%

    24 January, Wednesday

    Time Temperature Precipitation Wind Pressure Humidity
    00:00 +5°C° 0.4 mm 4 mps 740 mmHg 98%
    01:00 +5°C° 0.4 mm 4 mps 738 mmHg 98%
    02:00 +5°C° 0.4 mm 4 mps 737 mmHg 98%
    03:00 +5°C° 0.2 mm 4 mps 736 mmHg 97%
    04:00 +5°C° 0.2 mm 5 mps 736 mmHg 96%
    05:00 +5°C° 0.2 mm 5 mps 735 mmHg 94%
    06:00 +3°C° 0 mm 6 mps 735 mmHg 90%
    07:00 +2°C° 0 mm 6 mps 736 mmHg 86%
    08:00 0°C° 0 mm 7 mps 736 mmHg 81%
    09:00 +1°C° 0.1 mm 6 mps 737 mmHg 80%
    10:00 +1°C° 0.1 mm 6 mps 737 mmHg 80%
    11:00 +1°C° 0.1 mm 6 mps 738 mmHg 79%
    12:00 +1°C° 0 mm 5 mps 738 mmHg 79%
    13:00 +1°C° 0 mm 5 mps 738 mmHg 78%
    14:00 +1°C° 0 mm 5 mps 739 mmHg 78%
    15:00 0°C° 0 mm 4 mps 739 mmHg 78%
    16:00 -1°C° 0 mm 4 mps 740 mmHg 78%
    17:00 -2°C° 0 mm 4 mps 741 mmHg 79%
    18:00 -4°C° 0 mm 4 mps 742 mmHg 77%
    19:00 -5°C° 0 mm 4 mps 743 mmHg 76%
    20:00 -8°C° 0 mm 5 mps 743 mmHg 74%
    21:00 -10°C° 0 mm 5 mps 744 mmHg 73%
    22:00 -12°C° 0 mm 5 mps 744 mmHg 71%
    23:00 -13°C° 0 mm 5 mps 745 mmHg 70%

    25 January, Thursday

    Time Temperature Precipitation Wind Pressure Humidity
    00:00 -14°C° 0 mm 5 mps 745 mmHg 70%
    01:00 -14°C° 0 mm 5 mps 746 mmHg 70%
    02:00 -15°C° 0 mm 5 mps 746 mmHg 70%
    03:00 -17°C° 0 mm 5 mps 746 mmHg 70%
    04:00 -17°C° 0 mm 5 mps 747 mmHg 70%
    05:00 -17°C° 0 mm 5 mps 747 mmHg 70%
    06:00 -18°C° 0 mm 5 mps 747 mmHg 70%
    07:00 -18°C° 0 mm 5 mps 748 mmHg 70%
    08:00 -17°C° 0 mm 4 mps 748 mmHg 70%
    09:00 -18°C° 0 mm 5 mps 749 mmHg 69%
    10:00 -17°C° 0 mm 5 mps 749 mmHg 67%
    11:00 -17°C° 0 mm 5 mps 749 mmHg 66%
    12:00 -17°C° 0 mm 5 mps 749 mmHg 66%
    13:00 -15°C° 0 mm 5 mps 749 mmHg 65%
    14:00 -15°C° 0 mm 5 mps 749 mmHg 65%
    15:00 -17°C° 0 mm 5 mps 749 mmHg 66%
    16:00 -17°C° 0 mm 5 mps 750 mmHg 67%
    17:00 -18°C° 0 mm 5 mps 750 mmHg 68%
    18:00 -18°C° 0 mm 5 mps 751 mmHg 69%
    19:00 -19°C° 0 mm 5 mps 752 mmHg 69%
    20:00 -19°C° 0 mm 5 mps 752 mmHg 69%
    21:00 -19°C° 0 mm 5 mps 752 mmHg 70%
    22:00 -19°C° 0 mm 5 mps 753 mmHg 70%
    23:00 -19°C° 0 mm 5 mps 753 mmHg 70%

    26 January, Friday

    Time Temperature Precipitation Wind Pressure Humidity
    00:00 -19°C° 0 mm 5 mps 753 mmHg 71%
    01:00 -19°C° 0 mm 5 mps 753 mmHg 71%
    02:00 -19°C° 0 mm 5 mps 754 mmHg 71%
    03:00 -20°C° 0 mm 5 mps 754 mmHg 71%
    04:00 -20°C° 0 mm 5 mps 755 mmHg 71%
    05:00 -20°C° 0 mm 5 mps 755 mmHg 71%
    06:00 -20°C° 0 mm 5 mps 756 mmHg 72%
    07:00 -20°C° 0 mm 5 mps 757 mmHg 72%
    08:00 -20°C° 0 mm 5 mps 758 mmHg 72%
    09:00 -20°C° 0 mm 5 mps 758 mmHg 70%
    10:00 -19°C° 0 mm 5 mps 759 mmHg 69%
    11:00 -19°C° 0 mm 5 mps 759 mmHg 67%
    12:00 -17°C° 0 mm 5 mps 760 mmHg 66%
    13:00 -15°C° 0 mm 5 mps 760 mmHg 65%
    14:00 -14°C° 0 mm 5 mps 760 mmHg 64%
    15:00 -14°C° 0 mm 5 mps 761 mmHg 65%
    16:00 -14°C° 0 mm 4 mps 762 mmHg 66%
    17:00 -14°C° 0 mm 4 mps 763 mmHg 67%
    18:00 -15°C° 0 mm 4 mps 763 mmHg 68%
    19:00 -15°C° 0 mm 4 mps 764 mmHg 69%
    20:00 -16°C° 0 mm 4 mps 765 mmHg 70%
    21:00 -16°C° 0 mm 4 mps 766 mmHg 71%
    22:00 -15°C° 0 mm 3 mps 766 mmHg 73%
    23:00 -16°C° 0 mm 3 mps 767 mmHg 74%
    Show more